Flag for Germany Weather past 2 weeks in Görlitz, Saxony, Germany

Now
62 °F

Rain. Low clouds.


Feels Like: 62 °F
Forecast: 60 / 80 °F
Wind: 5 mph from Northeast

Location: Goerlitz

Current Time: Jul 24, 2014 at 8:34:24 PM

Latest Report: Jul 24, 2014 at 8:00 PM


Visibility: 2 mi

Pressure: 29.90 "Hg

Humidity: 97%

Dew point: 61 °F

Location of GörlitzLocation

Historic Weather in Görlitz — Graph

°F

Görlitz temperature yesterday

Maximum temperature yesterday: 83 °F (at 5:00 PM)
Minimum temperature yesterday: 58 °F (at 5:00 AM)
Average temperature yesterday: 67 °F

Past Weeks' High & Low Weather Summary

 TemperatureHumidityPressure
High91 °F (Jul 20, 6:00 PM)98% (Jul 10, 3:00 AM)30.16 "Hg (Jul 10, 3:00 AM)
Low53 °F (Jul 13, 2:00 AM)24% (Jul 23, 5:00 PM)29.67 "Hg (Jul 9, 7:00 PM)
Average68 °F74%29.93 "Hg
* Reported Jul 9 7:00 PM — Jul 24 7:00 PM, Görlitz, Weather by CustomWeather, © 2014

Note: Actual official high and low records may vary slightly from our data, if they occured in-between our weather recording intervals... More about our weather records

Advertising

Görlitz weather history for previous 24 hours

 ConditionsComfort  
Time TempWeatherWind HumidityBarometerVisibility
7:00 PM
Jul 24
61 °FLight rain. Low clouds.3 mph97%29.90 "Hg2 mi
6:00 PM61 °FRain. Low clouds.3 mph96%29.91 "Hg2 mi
5:00 PM61 °FRain. Low clouds.5 mph96%29.93 "Hg6 mi
4:00 PM62 °FRain. Low clouds.7 mph96%29.93 "Hg2 mi
3:00 PM62 °FLight rain. Low clouds.5 mph95%29.94 "Hg2 mi
2:00 PM64 °FLight rain. Overcast.6 mph88%29.96 "Hg11 mi
1:00 PM63 °FOvercast.7 mph89%29.97 "Hg14 mi
12:00 PM63 °FLight rain. Overcast.6 mph90%29.97 "Hg11 mi
11:00 AM62 °FLow clouds.7 mph93%29.98 "Hg7 mi
10:00 AM59 °FLight rain. Low clouds.5 mph95%29.98 "Hg4 mi
9:00 AM58 °FLight rain. Overcast.1 mph95%29.99 "Hg5 mi
8:00 AM58 °FLow clouds.2 mph97%30.00 "Hg2 mi
7:00 AM57 °FLight rain. Overcast.2 mph96%30.00 "Hg11 mi
6:00 AM56 °FPartly sunny.2 mph95%30.00 "Hg12 mi
5:00 AM56 °FPassing clouds.2 mph95%30.00 "Hg8 mi
4:00 AM55 °FPassing clouds.2 mph94%29.99 "Hg9 mi
3:00 AM56 °FPassing clouds.2 mph94%29.99 "Hg9 mi
2:00 AM57 °FPassing clouds.1 mph95%30.00 "Hg7 mi
1:00 AM59 °FPassing clouds.2 mph96%30.01 "Hg9 mi
12:00 AM58 °FPassing clouds.1 mph96%30.02 "Hg7 mi
11:00 PM
Jul 23
60 °FPassing clouds.2 mph95%30.01 "Hg9 mi
10:00 PM60 °FPassing clouds.2 mph90%30.01 "Hg16 mi
9:00 PM64 °FOvercast.1 mph86%29.99 "Hg28 mi
8:00 PM63 °FLight rain. Overcast.3 mph88%30.01 "Hg22 mi
Weather by CustomWeather, © 2014

See weather overviewHow to use our weather pages